Flag for Nicaragua Weather past 2 weeks in Managua, Nicaragua

Now
82 °F

Passing clouds.


Feels Like: 86 °F
Forecast: 79 / 95 °F
Wind: 9 mph from Southeast

Location: Managua A. C. Sandino

Current Time: May 24, 2015 at 9:46:16 PM

Latest Report: May 24, 2015 at 9:00 PM


Visibility: N/A

Pressure: 29.89 "Hg

Humidity: 66%

Dew point: 70 °F

Location of ManaguaLocation

Historic Weather in Managua — Graph

°F

Managua temperature yesterday

Maximum temperature yesterday: 93 °F (at 2:00 PM)
Minimum temperature yesterday: 77 °F (at 3:00 AM)
Average temperature yesterday: 84 °F

Past Weeks' High & Low Weather Summary

 TemperatureHumidityPressure
High97 °F (May 12, 1:00 PM)94% (May 17, 5:00 PM)29.98 "Hg (May 17, 5:00 PM)
Low73 °F (May 18, 12:00 AM)36% (May 16, 1:00 PM)29.68 "Hg (May 11, 3:00 PM)
Average85 °F63%29.84 "Hg
* Reported May 9 8:45 PM — May 24 8:00 PM, Managua, Weather by CustomWeather, © 2015

Note: Actual official high and low records may vary slightly from our data, if they occured in-between our weather recording intervals... More about our weather records

Advertising

Managua weather history for previous 24 hours

 ConditionsComfort  
Time TempWeatherWind HumidityBarometerVisibility
8:00 PM
Sun, May 24
84 °FPassing clouds.5 mph58%29.86 "HgN/A
7:00 PM88 °FPassing clouds.12 mph49%29.83 "HgN/A
6:00 PM90 °FPartly sunny.7 mph49%29.80 "HgN/A
5:00 PM91 °FPartly sunny.12 mph44%29.80 "HgN/A
4:00 PM93 °FScattered clouds.16 mph44%29.77 "HgN/A
3:00 PM93 °FScattered clouds.12 mph47%29.80 "HgN/A
2:00 PM93 °FScattered clouds.14 mph47%29.83 "HgN/A
1:00 PM91 °FScattered clouds.12 mph49%29.83 "HgN/A
12:00 PM91 °FScattered clouds.12 mph44%29.86 "HgN/A
11:00 AM90 °FScattered clouds.16 mph46%29.89 "HgN/A
10:00 AM88 °FScattered clouds.16 mph52%29.86 "HgN/A
9:00 AM86 °FScattered clouds.12 mph59%29.89 "HgN/A
8:00 AM82 °FScattered clouds.9 mph66%29.89 "HgN/A
7:00 AM81 °FScattered clouds.9 mph70%29.89 "HgN/A
6:00 AM77 °FScattered clouds.5 mph83%29.86 "HgN/A
5:00 AM77 °FPassing clouds.5 mph83%29.86 "HgN/A
1:00 AM79 °FPassing clouds.5 mph79%29.89 "HgN/A
12:00 AM79 °FPassing clouds.7 mph79%29.89 "HgN/A
11:00 PM
Sat, May 23
79 °FPassing clouds.7 mph79%29.89 "HgN/A
10:00 PM81 °FPassing clouds.7 mph74%29.89 "HgN/A
9:00 PM82 °FPassing clouds.9 mph70%29.89 "HgN/A
Weather by CustomWeather, © 2015

See weather overviewHow to use our weather pages